User: anonymous   Login
Location: ???????
(55.4362°N, 38.1183°E)
Time: 11:37:43
(UTC+00:00)
Language:

Cosmos 1980 - Orbit

View from above orbital plane
View from above orbital plane
View from above satellite
View from above satellite

Ground track
Ground track

The orbit data is extracted from the following two-line orbital elements,

1 19649U 88102A   21266.08355061 -.00000165  00000-0 -60675-4 0  9995
2 19649  71.0029  33.7474 0003011 112.4415 247.7026 14.14739592695048
Epoch (UTC): 23 September 2021 02:00:18
Eccentricity: 0.0003011
inclination: 71.0029°
perigee height: 841 km
apogee height: 845 km
right ascension of ascending node: 33.7474°
argument of perigee: 112.4415°
revolutions per day: 14.14739592
mean anomaly at epoch: 247.7026°
orbit number at epoch: 69504

The dashed part of the orbit path shows where the satellite is in the earth's shadow,  

DLR